This demonstration page uses our WeatherBlox Daily Observations layout. Learn more.

Left ArrowRight Arrow

34.16533, -84.80231

Hourly Observations for July 12, 2020

Temp ( °F °C ) Dew Point ( °F °C ) Humidity (%) Winds ( mph kmh ) Pressure ( in mb ) Visibility ( mi km ) Precip ( " mm )
12:53 am 00:53 Clear 70 21.1 64 17.8 82 82 Calm 29.92 1013 10 16 0.00 0.00
1:53 am 01:53 Clear 69 20.6 64 17.8 84 84 Calm 29.90 1013 10 16 0.00 0.00
2:53 am 02:53 Clear 68 20 64 17.8 87 87 Calm 29.88 1012 10 16 0.00 0.00
3:53 am 03:53 Clear 67 19.4 63 17.2 87 87 Calm 29.88 1012 10 16 0.00 0.00
4:53 am 04:53 Clear 67 19.4 63 17.2 87 87 Calm 29.88 1012 10 16 0.00 0.00
5:53 am 05:53 Clear 66 18.9 63 17.2 90 90 Calm 29.88 1012 10 16 0.00 0.00
6:53 am 06:53 Sunny 67 19.4 63 17.2 87 87 Calm 29.87 1012 10 16 0.00 0.00
7:53 am 07:53 Sunny 68 20 64 17.8 87 87 Calm 29.90 1012 10 16 0.00 0.00
8:53 am 08:53 Sunny 73 22.8 66 18.9 79 79 Calm 29.90 1013 10 16 0.00 0.00
9:53 am 09:53 Sunny 78 25.6 67 19.4 69 69 Calm 29.90 1012 10 16 0.00 0.00
10:53 am 10:53 Sunny 82 27.8 68 20 63 63 NW 3 6 29.90 1013 10 16 0.00 0.00
11:53 am 11:53 Sunny 83 28.3 67 19.4 59 59 N 8 13 29.91 1013 10 16 0.00 0.00
12:53 pm 12:53 Sunny 82 27.8 67 19.4 60 60 VRB 5 7 29.90 1013 10 16 0.00 0.00
1:53 pm 13:53 Sunny 85 29.4 66 18.9 53 53 VRB 6 9 29.87 1012 10 16 0.00 0.00
2:53 pm 14:53 Sunny 83 28.3 68 20 61 61 VRB 5 7 29.85 1011 10 16 0.00 0.00
3:53 pm 15:53 Mostly Sunny 81 27.2 67 19.4 62 62 Calm 29.84 1010 10 16 0.00 0.00
4:53 pm 16:53 Mostly Cloudy 77 25 71 21.7 82 82 S 6 9 29.78 1008 10 16 0.00 0.00
5:53 pm 17:53 Sunny 78 25.6 71 21.7 79 79 SE 7 11 29.74 1007 10 16 0.01 0.25
6:53 pm 18:53 Sunny 80 26.7 68 20 67 67 VRB 3 6 29.78 1008 10 16 0.00 0.00
7:53 pm 19:53 Sunny 79 26.1 67 19.4 67 67 Calm 29.80 1009 10 16 0.00 0.00
8:53 pm 20:53 Clear 77 25 68 20 74 74 Calm 29.83 1010 10 16 0.00 0.00
9:53 pm 21:53 Clear 74 23.3 67 19.4 79 79 Calm 29.83 1010 10 16 0.00 0.00
10:53 pm 22:53 Clear 73 22.8 67 19.4 81 81 Calm 29.84 1010 10 16 0.00 0.00
11:53 pm 23:53 Clear 71 21.7 67 19.4 87 87 Calm 29.85 1011 10 16 0.00 0.00

Powered by AerisWeather